Windom, MN

10:59 AM CST on November 24, 2017 (GMT -0600)
Windom Municipal

Weather History for KMWM - October, 2014

Change the Weather History Date:

Thursday, October 30, 2014

  Actual Average Record
Temperature  
Mean Temperature 42 °F -  
Max Temperature 53 °F 53 °F 87 °F (1950)
Min Temperature 30 °F 32 °F 13 °F (1991)
Degree Days  
Heating Degree Days 24    
Moisture  
Dew Point 34 °F    
Average Humidity 70    
Maximum Humidity 87    
Minimum Humidity 51    
Precipitation  
Precipitation 0.00 in - - ()
Sea Level Pressure  
Sea Level Pressure 30.12 in    
Wind  
Wind Speed 7 mph (NNW)    
Max Wind Speed 28 mph    
Max Gust Speed 38 mph    
Visibility 10 miles    
Events      
Averages and records for this station are not official NWS values.
T = Trace of Precipitation, MM = Missing Value Source: NWS Daily Summary

Daily Weather History Graph

Daily Weather History Graph

Search for Another Location

Airport or City:

Trip Planner

Search our weather history database for the weather conditions in past years. The results will help you decide how hot, cold, wet, or windy it might be!

Date:

Astronomy

Oct. 30, 2014 Rise Set
Actual Time 7:54 AM CDT 6:13 PM CDT
Civil Twilight 7:24 AM CDT 6:43 PM CDT
Nautical Twilight 6:50 AM CDT 7:17 PM CDT
Astronomical Twilight 6:16 AM CDT 7:50 PM CDT
Moon 1:59 PM CDT (10/30) No Moon Set
Length of Visible Light 11h 19m
Length of Day
10h 19m
Waxing Crescent, 45% of the Moon is Illuminated
Oct 30
Waxing Crescent
Oct 30
First Quarter
Nov 6
Full
Nov 14
Last Quarter
Nov 22
New

Hourly Weather History & Observations

Time (CDT) Temp. Windchill Dew Point Humidity Pressure Visibility Wind Dir Wind Speed Gust Speed Precip Events Conditions
12:14 AM 41.0 °F - 33.8 °F 76% 30.03 in 10.0 mi Calm Calm - N/A   Overcast
12:33 AM 42.8 °F - 33.8 °F 70% 30.02 in 10.0 mi Calm Calm - N/A   Overcast
12:54 AM 42.8 °F - 33.8 °F 70% 30.02 in 10.0 mi Calm Calm - N/A   Overcast
1:14 AM 42.8 °F - 33.8 °F 70% 30.02 in 10.0 mi Calm Calm - N/A   Overcast
1:33 AM 42.8 °F - 33.8 °F 70% 30.02 in 10.0 mi Calm Calm - N/A   Overcast
1:54 AM 42.8 °F - 33.8 °F 70% 30.02 in 10.0 mi Calm Calm - N/A   Overcast
2:13 AM 42.8 °F - 33.8 °F 70% 30.02 in 10.0 mi Calm Calm - N/A   Overcast
2:34 AM 42.8 °F - 35.6 °F 76% 30.02 in 10.0 mi Calm Calm - N/A   Unknown
2:53 AM 42.8 °F - 33.8 °F 70% 30.02 in 10.0 mi Calm Calm - N/A   Unknown
3:14 AM 42.8 °F - 35.6 °F 76% 30.01 in 10.0 mi Calm Calm - N/A   Mostly Cloudy
3:33 AM 41.0 °F - 35.6 °F 81% 30.00 in 10.0 mi Calm Calm - N/A   Mostly Cloudy
3:53 AM 41.0 °F 38.0 °F 33.8 °F 76% 30.00 in 10.0 mi East 4.6 mph - N/A   Mostly Cloudy
4:14 AM 41.0 °F 39.0 °F 35.6 °F 81% 29.99 in 10.0 mi East 3.5 mph - N/A   Overcast
4:33 AM 41.0 °F 39.0 °F 33.8 °F 76% 29.99 in 10.0 mi East 3.5 mph - N/A   Unknown
4:53 AM 42.8 °F 39.3 °F 33.8 °F 70% 29.99 in 10.0 mi ENE 5.8 mph - N/A   Unknown
5:14 AM 41.0 °F 38.0 °F 33.8 °F 76% 29.98 in 10.0 mi East 4.6 mph - N/A   Overcast
5:33 AM 41.0 °F 38.0 °F 33.8 °F 76% 29.98 in 10.0 mi ESE 4.6 mph - N/A   Overcast
5:53 AM 39.2 °F - 33.8 °F 81% 29.99 in 10.0 mi Calm Calm - N/A   Mostly Cloudy
6:14 AM 39.2 °F 35.9 °F 33.8 °F 81% 30.00 in 10.0 mi NE 4.6 mph - N/A   Unknown
6:33 AM 39.2 °F 37.0 °F 33.8 °F 81% 30.00 in 10.0 mi ENE 3.5 mph - N/A   Unknown
6:53 AM 39.2 °F 37.0 °F 33.8 °F 81% 30.00 in 10.0 mi East 3.5 mph - N/A   Unknown
7:14 AM 39.2 °F 37.0 °F 33.8 °F 81% 29.99 in 10.0 mi SE 3.5 mph - N/A   Mostly Cloudy
7:33 AM 39.2 °F - 33.8 °F 81% 29.99 in 10.0 mi Calm Calm - N/A   Unknown
7:53 AM 39.2 °F - 33.8 °F 81% 30.00 in 10.0 mi Calm Calm - N/A   Unknown
8:14 AM 41.0 °F - 33.8 °F 76% 30.01 in 10.0 mi Calm Calm - N/A   Unknown
8:33 AM 39.2 °F - 35.6 °F 87% 30.01 in 10.0 mi Calm Calm - N/A   Overcast
8:54 AM 41.0 °F - 35.6 °F 81% 30.02 in 10.0 mi Calm Calm - N/A   Unknown
9:14 AM 42.8 °F - 35.6 °F 76% 30.02 in 10.0 mi Calm Calm - N/A   Unknown
9:33 AM 42.8 °F - 35.6 °F 76% 30.02 in 10.0 mi Calm Calm - N/A   Unknown
9:54 AM 44.6 °F 43.1 °F 35.6 °F 71% 30.02 in 10.0 mi SSE 3.5 mph - N/A   Scattered Clouds
10:13 AM 46.4 °F - 35.6 °F 66% 30.04 in 10.0 mi Calm Calm - N/A   Unknown
10:33 AM 48.2 °F - 35.6 °F 62% 30.05 in 10.0 mi WNW 4.6 mph - N/A   Unknown
10:54 AM 48.2 °F - 35.6 °F 62% 30.05 in 10.0 mi NNW 6.9 mph - N/A   Scattered Clouds
11:14 AM 50.0 °F - 37.4 °F 62% 30.06 in 10.0 mi NNW 12.7 mph - N/A   Scattered Clouds
11:33 AM 51.8 °F - 35.6 °F 54% 30.06 in 10.0 mi NNW 13.8 mph 17.3 mph N/A   Clear
11:54 AM 53.6 °F - 35.6 °F 51% 30.06 in 10.0 mi NNW 12.7 mph 18.4 mph N/A   Mostly Cloudy
12:14 PM 53.6 °F - 35.6 °F 51% 30.07 in 10.0 mi North 15.0 mph - N/A   Mostly Cloudy
12:33 PM 53.6 °F - 37.4 °F 54% 30.08 in 10.0 mi NNW 16.1 mph - N/A   Overcast
12:53 PM 51.8 °F - 37.4 °F 58% 30.09 in 10.0 mi NNW 17.3 mph - N/A   Mostly Cloudy
1:13 PM 51.8 °F - 37.4 °F 58% 30.08 in 10.0 mi North 15.0 mph - N/A   Mostly Cloudy
1:33 PM 53.6 °F - 39.2 °F 58% 30.09 in 10.0 mi NNW 18.4 mph 24.2 mph N/A   Overcast
1:54 PM 53.6 °F - 39.2 °F 58% 30.09 in 10.0 mi North 17.3 mph 23.0 mph N/A   Overcast
2:13 PM 53.6 °F - 37.4 °F 54% 30.09 in 10.0 mi NNW 17.3 mph 24.2 mph N/A   Overcast
2:33 PM 53.6 °F - 37.4 °F 54% 30.10 in 10.0 mi NNW 17.3 mph 21.9 mph N/A   Overcast
2:54 PM 51.8 °F - 37.4 °F 58% 30.11 in 10.0 mi North 19.6 mph - N/A   Mostly Cloudy
3:13 PM 51.8 °F - 37.4 °F 58% 30.12 in 10.0 mi NW 21.9 mph 25.3 mph N/A   Overcast
3:33 PM 51.8 °F - 37.4 °F 58% 30.14 in 10.0 mi NNW 18.4 mph - N/A   Overcast
3:54 PM 50.0 °F - 37.4 °F 62% 30.15 in 10.0 mi NNW 21.9 mph 25.3 mph N/A   Overcast
4:13 PM 48.2 °F - 39.2 °F 71% 30.16 in 10.0 mi NNW 19.6 mph 25.3 mph N/A   Overcast
4:34 PM 46.4 °F 39.2 °F 39.2 °F 76% 30.17 in 10.0 mi NNW 18.4 mph 27.6 mph N/A   Overcast
4:53 PM 46.4 °F 39.5 °F 39.2 °F 76% 30.19 in 10.0 mi NNW 17.3 mph 26.5 mph N/A   Overcast
5:13 PM 44.6 °F 36.4 °F 39.2 °F 81% 30.20 in 10.0 mi NNW 20.7 mph 31.1 mph N/A   Overcast
5:34 PM 44.6 °F 36.1 °F 39.2 °F 81% 30.21 in 10.0 mi NNW 21.9 mph 28.8 mph N/A   Overcast
5:53 PM 44.6 °F 35.7 °F 37.4 °F 76% 30.21 in 10.0 mi NNW 24.2 mph 28.8 mph N/A   Overcast
6:13 PM 44.6 °F 36.1 °F 35.6 °F 71% 30.23 in 10.0 mi NNW 21.9 mph 28.8 mph N/A   Overcast
6:34 PM 42.8 °F 33.1 °F 35.6 °F 76% 30.24 in 10.0 mi NW 25.3 mph 32.2 mph N/A   Overcast
6:53 PM 41.0 °F 30.2 °F 33.8 °F 76% 30.26 in 10.0 mi NW 27.6 mph 35.7 mph N/A   Overcast
7:13 PM 39.2 °F 28.0 °F 32.0 °F 75% 30.27 in 10.0 mi NNW 26.5 mph 34.5 mph N/A   Overcast
7:34 PM 39.2 °F 28.7 °F 30.2 °F 70% 30.29 in 10.0 mi NW 23.0 mph 33.4 mph N/A   Overcast
7:53 PM 39.2 °F 28.7 °F 30.2 °F 70% 30.30 in 10.0 mi NNW 23.0 mph 32.2 mph N/A   Overcast
8:13 PM 39.2 °F 28.5 °F 30.2 °F 70% 30.31 in 10.0 mi NNW 24.2 mph 32.2 mph N/A   Overcast
8:34 PM 37.4 °F 25.4 °F 30.2 °F 75% 30.32 in 10.0 mi NNW 27.6 mph 31.1 mph N/A   Overcast
8:53 PM 35.6 °F 23.2 °F 28.4 °F 75% 30.33 in 10.0 mi NNW 26.5 mph 32.2 mph N/A   Overcast
9:13 PM 35.6 °F 23.4 °F 28.4 °F 75% 30.33 in 10.0 mi NNW 25.3 mph 34.5 mph N/A   Overcast
9:33 PM 35.6 °F 24.5 °F 26.6 °F 70% 30.34 in 10.0 mi NNW 20.7 mph 29.9 mph N/A   Overcast
9:53 PM 35.6 °F 23.7 °F 26.6 °F 70% 30.35 in 10.0 mi NNW 24.2 mph 29.9 mph N/A   Overcast
10:14 PM 35.6 °F 24.2 °F 26.6 °F 70% 30.36 in 10.0 mi NNW 21.9 mph 27.6 mph N/A   Overcast
10:33 PM 35.6 °F 24.5 °F 23.0 °F 60% 30.37 in 10.0 mi NNW 20.7 mph 33.4 mph N/A   Overcast
10:53 PM 33.8 °F 21.0 °F 19.4 °F 56% 30.38 in 10.0 mi NNW 25.3 mph 38.0 mph N/A   Mostly Cloudy
11:14 PM 32.0 °F 19.5 °F 19.4 °F 60% 30.39 in 10.0 mi NNW 21.9 mph 29.9 mph N/A   Scattered Clouds
11:33 PM 30.2 °F 17.8 °F 19.4 °F 64% 30.40 in 10.0 mi NNW 19.6 mph 26.5 mph N/A   Clear
11:53 PM 30.2 °F 17.4 °F 19.4 °F 64% 30.41 in 10.0 mi NNW 20.7 mph 24.2 mph N/A   Clear